SCP
0 0 0 0 0 0 0 0 0 0 0 1 1 1 2 2 1 1 1 0 0 0 0 0 0 0 0 0 0 0 0 0 0 0 0 0 0 0 0 0 0 0 0
0 0 0 0 0 0 0 0 0 0 0 1 1 1 2 0 0 0 0 0 0 0 0 0 0 0 0 0 0 0 0 0 0 0 0 0 0 0 0 0 0 0 0
0 0 0 0 0 0 0 0 0 0 0 1 1 1 0 0 0 0 0 0 0 0 0 0 0 0 0 0 0 0 0 0 0 0 0 0 0 0 0 0 0 0 0
0 0 0 0 0 0 0 0 0 0 0 1 1 0 0 0 0 0 0 0 0 0 0 0 0 0 0 0 0 0 0 0 0 0 0 0 0 0 0 0 0 0 0
0 0 0 0 0 0 0 0 0 0 1 1 1 0 0 0 0 0 0 0 0 0 0 0 0 0 0 0 0 0 0 0 0 0 0 0 0 0 0 0 0 0 0
0 0 0 0 0 0 0 0 0 0 1 1 0 0 0 0 0 0 0 0 0 0 0 0 0 0 0 0 0 0 0 0 0 0 0 0 0 0 0 0 0 0 0
0 0 0 0 0 0 0 0 0 0 0 0 0 0 0 0 0 0 0 0 0 0 0 0 0 0 0 0 0 0 0 0 0 0 0 0 0 0 0 0 0 0 0
0 0 0 0 0 0 0 0 0 0 0 0 0 0 0 0 0 0 0 0 0 0 0 0 0 0 0 0 0 0 0 0 0 0 0 0 0 0 0 0 0 0 0
0 0 0 0 0 0 0 0 0 0 0 0 0 0 0 0 0 0 0 0 0 0 0 0 0 0 0 0 0 0 0 0 0 0 0 0 0 0 0 0 0 0 0
0 0 0 0 0 0 0 0 0 0 0 0 0 0 0 0 0 0 0 0 0 0 0 0 0 0 0 0 0 0 0 0 0 0 0 0 0 0 0 0 0 0 0
0 0 0 0 0 0 0 0 0 0 0 0 0 0 0 0 0 0 0 0 0 0 0 0 0 0 0 0 0 0 0 0 0 0 0 0 0 0 0 0 0 0 0
0 0 0 0 0 0 0 0 0 0 0 0 0 0 0 0 0 0 0 0 0 0 0 0 0 0 0 0 0 0 0 0 0 0 0 0 0 0 0 0 0 0 0
0 0 0 0 0 0 0 0 0 0 0 0 0 0 0 0 0 0 0 0 0 0 0 0 0 0 0 0 0 0 0 0 0 0 0 0 0 0 0 0 0 0 0
0 0 0 0 0 0 0 0 0 0 0 0 0 0 0 0 0 0 0 0 0 0 0 0 0 0 0 0 0 0 0 0 0 0 0 0 0 0 0 0 0 0 0
0 -0 0 0 0 0 0 0 0 0 0 0 0 0 0 0 0 0 0 0 0 0 0 0 0 0 0 0 0 0 0 0 0 0 0 0 0 0 0 0 0 0 0
0 0 0 0 0 0 0 0 0 0 0 0 0 0 0 0 0 0 0 0 0 0 0 0 0 0 0 0 0 0 0 0 0 0 0 0 0 0 0 0 0 0 0
0 0 0 0 0 0 0 0 0 0 0 0 0 0 0 0 0 0 0 0 0 0 0 0 0 0 0 0 0 0 0 0 0 0 0 0 0 0 0 0 0 0 0
-0 -0 0 0 0 0 0 0 0 0 0 0 0 0 0 0 0 0 0 0 0 0 0 0 0 0 0 0 0 0 0 0 0 0 0 0 0 0 0 0 0 0 0
-0 -0 -0 0 0 0 0 0 0 0 0 0 0 0 0 0 0 0 0 0 0 0 0 0 0 0 0 0 0 0 0 0 0 0 0 0 0 0 0 0 0 0 0
0 -0 0 0 0 0 0 0 0 0 0 0 0 0 0 0 0 0 0 0 0 0 0 0 0 0 0 0 0 0 0 0 0 0 0 0 0 0 0 0 0 0 0
0 -0 0 0 0 0 0 0 0 0 0 0 0 0 0 0 0 0 0 0 0 0 0 0 0 0 0 0 0 0 0 0 0 0 0 0 0 0 0 0 0 0 0
-0 0 0 0 0 0 0 0 0 0 0 0 0 0 0 0 0 0 0 0 0 0 0 0 0 0 0 0 0 0 0 0 0 0 0 0 0 0 0 0 0 0 0
-0 -0 -0 -0 -0 0 0 -0 -0 -0 -0 -0 0 0 0 0 0 0 0 0 0 0 0 0 0 0 0 0 0 0 0 0 0 0 0 0 0 0 0 0 0 0 0
-0 -0 -0 -0 -0 -0 -0 -0 -0 -0 -0 -0 0 0 0 0 0 0 0 0 0 0 0 0 0 0 0 0 0 0 0 0 0 0 0 0 0 0 0 0 0 0 0
-0 -0 -0 -0 -0 -0 -0 -0 -0 -0 -0 0 0 0 0 0 0 0 0 0 0 0 0 0 0 0 0 0 0 0 0 0 0 0 0 0 0 0 0 0 0 0 0
-0 -0 -0 -0 -0 -0 -0 -0 -0 -0 0 0 0 0 0 0 0 0 0 0 0 0 0 0 0 0 0 0 0 0 0 0 0 0 0 0 0 0 0 0 0 0 0
Wind_Speed_500mb
53 56 54 59 65 65 63 59 53 47 46 47 47 45 47 52 54 53 57 59 52 54 48 40 34 26 23 19 14 14 20 24 24 19 16 21 19 20 21 17 17 28 37
65 64 61 63 65 66 63 63 61 55 51 48 48 45 51 59 69 74 73 65 65 56 44 43 35 28 24 21 13 14 19 22 22 18 16 4 15 15 15 20 33 25 32
67 67 69 68 68 69 67 63 61 59 56 50 47 51 63 76 78 75 73 66 62 56 49 47 38 25 23 17 13 13 15 21 22 18 9 4 7 26 17 26 23 28 33
64 69 69 69 73 72 68 65 62 61 56 56 57 68 73 78 75 74 70 64 57 53 51 44 31 28 21 17 13 14 16 16 18 21 16 11 19 8 17 13 19 31 38
39 46 54 62 65 63 71 64 61 60 58 60 65 70 61 55 63 69 66 57 53 51 48 40 34 31 22 18 15 14 15 16 17 18 20 20 18 18 18 34 24 43 40
23 32 41 41 48 59 48 63 63 65 62 67 68 60 55 64 64 69 66 61 56 56 50 43 29 23 19 13 12 14 15 18 19 20 20 19 16 17 23 31 46 53 54
38 29 30 36 37 42 56 53 58 61 66 67 54 50 64 58 56 62 67 62 58 54 46 36 32 28 16 12 10 12 16 19 21 22 22 25 25 28 31 36 48 53 62
34 35 39 37 35 39 43 54 53 56 57 57 52 61 59 53 58 63 67 60 59 52 43 37 28 20 13 8 9 12 18 20 23 25 27 28 29 31 33 38 43 58 50
16 22 27 27 28 34 41 51 51 53 54 54 61 59 58 57 63 69 62 59 53 48 42 33 24 16 8 6 10 15 19 22 26 27 29 31 33 36 38 42 42 43 55
35 37 46 47 38 34 40 47 52 52 53 56 57 58 59 59 66 69 65 56 51 44 37 28 19 10 5 7 12 17 20 24 26 29 30 34 36 39 41 42 43 43 51
64 69 64 56 53 43 40 49 52 55 57 55 55 56 61 62 67 64 58 54 47 41 30 21 13 6 5 9 14 18 23 25 28 32 36 37 38 41 42 43 44 45 48
77 61 67 74 65 47 45 55 55 54 59 59 57 58 64 68 68 64 59 50 45 34 25 17 9 4 7 11 15 20 24 28 32 35 36 37 37 43 43 41 42 48 50
41 44 54 56 62 52 51 57 65 58 59 62 61 64 73 72 69 61 55 48 38 29 21 12 5 4 8 13 18 22 27 31 33 34 37 41 41 43 42 44 47 49 53
18 14 18 42 50 57 59 58 66 63 63 66 69 76 78 72 64 59 50 42 32 23 15 8 4 5 11 17 21 26 31 32 33 36 39 42 44 44 44 51 45 49 57
1 9 20 35 46 55 58 61 67 69 68 77 78 81 76 67 60 53 45 36 26 18 11 4 4 9 16 20 25 30 32 33 36 39 41 41 45 50 44 44 51 56 62
9 17 28 39 48 53 55 71 77 77 79 80 81 76 69 62 54 46 37 29 21 13 7 2 7 14 19 25 30 33 35 38 40 44 45 43 42 40 41 43 47 50 61
18 22 33 39 44 53 59 77 86 86 83 82 75 68 62 56 47 39 31 24 16 9 3 5 11 17 25 29 32 36 40 44 41 42 41 41 39 42 45 49 49 58 59
24 31 34 42 49 62 69 83 84 82 78 73 69 61 56 48 41 33 25 18 11 5 3 10 16 23 29 29 35 40 44 41 39 41 40 43 45 45 48 53 65 66 67
24 28 38 47 62 75 80 82 81 77 71 66 60 54 46 40 33 27 20 13 6 1 7 14 21 25 26 35 37 44 44 41 38 36 40 43 47 45 46 58 69 72 76
32 44 54 61 66 73 77 80 76 66 58 55 53 46 39 32 28 22 14 7 3 5 13 20 25 28 29 35 40 45 44 39 37 40 43 41 42 44 53 59 70 75 71
37 40 46 55 62 65 67 62 58 56 54 52 48 42 35 29 22 12 10 5 3 11 18 23 26 30 32 36 44 44 41 37 42 47 48 51 43 53 57 59 63 61 56
40 44 52 55 55 54 59 60 57 54 52 47 41 36 30 21 12 13 6 2 9 16 21 24 25 25 29 36 40 42 33 36 44 50 55 58 57 59 57 54 47 48 51
41 45 53 57 54 52 49 54 54 50 45 40 35 28 18 19 14 7 2 8 15 20 21 26 28 30 35 34 31 30 35 40 44 48 53 59 59 53 50 44 45 42 42
39 44 50 53 51 51 46 40 45 42 37 32 28 25 20 14 8 2 7 13 18 22 26 28 31 36 36 34 37 48 51 46 47 55 62 60 47 42 41 43 43 42 42
40 46 52 53 52 47 41 41 39 36 35 34 28 20 15 9 4 6 11 16 23 24 27 31 36 37 40 39 46 48 48 46 52 55 57 45 43 47 46 46 45 46 50
46 49 53 50 52 49 45 42 39 35 32 28 19 15 11 6 5 11 19 21 22 27 31 32 35 38 40 44 48 48 44 46 48 47 41 41 44 45 48 50 53 55 59
Wind_Direction_500mb
239 236 234 231 230 229 226 222 218 217 210 204 201 203 204 210 209 207 198 213 208 212 214 214 217 225 241 232 244 283 304 315 324 330 321 316 319 302 285 279 270 284 299
241 237 233 230 228 227 224 218 218 216 211 211 212 199 201 207 212 208 211 210 210 212 209 213 220 223 223 225 247 286 305 314 328 337 348 342 286 311 295 274 284 284 291
244 242 238 233 230 228 226 224 217 215 212 203 193 188 199 208 211 206 221 216 214 216 208 214 215 217 226 230 259 289 308 321 326 339 349 339 283 291 285 273 285 292 288
243 242 240 237 232 228 227 222 219 212 206 198 195 209 216 215 217 217 210 204 203 203 201 205 202 203 213 246 273 297 310 319 318 329 331 307 280 299 300 258 297 286 293
246 247 244 242 239 232 224 222 216 207 201 200 198 215 212 216 216 209 202 198 199 195 194 195 193 214 213 233 266 288 313 315 316 321 321 320 307 292 277 297 293 290 294
255 253 249 246 241 239 231 215 212 204 197 198 211 213 202 217 209 201 195 195 197 193 191 195 198 207 212 237 267 300 313 315 320 318 315 313 299 272 279 287 295 299 308
272 256 247 241 238 236 231 217 209 203 196 202 195 189 212 214 209 203 198 193 190 189 191 194 187 204 217 243 283 310 314 318 319 316 313 309 301 292 294 294 297 296 301
265 264 253 251 258 236 224 217 210 201 193 187 182 191 207 201 196 196 193 193 192 189 181 188 186 199 218 251 299 312 317 317 316 314 312 307 302 297 297 296 297 302 299
284 281 257 255 257 247 230 211 206 196 185 177 176 190 193 193 191 188 188 184 182 179 181 187 188 198 219 282 311 318 318 317 313 313 310 307 305 302 301 297 295 293 298
285 284 272 266 269 254 224 208 196 187 176 169 180 186 186 188 187 186 181 182 175 179 180 180 184 200 248 305 313 315 316 313 311 308 305 304 302 298 297 297 294 288 287
283 280 270 264 261 242 213 193 185 174 167 167 176 178 179 182 180 176 170 174 176 177 176 178 187 207 278 307 312 314 312 311 308 307 305 303 302 300 300 298 295 291 292
288 280 269 258 232 217 196 179 169 166 162 167 171 172 172 172 173 166 169 170 173 169 173 178 184 230 294 307 311 311 311 311 307 303 300 300 299 298 302 300 294 293 294
300 282 263 225 198 179 177 168 158 157 158 163 167 165 163 168 165 166 166 166 167 168 169 176 196 265 298 305 309 311 311 307 304 302 300 300 301 303 300 298 298 300 299
295 325 83 143 156 161 162 159 151 155 158 164 159 159 162 164 164 163 163 163 164 164 163 173 218 287 301 308 312 315 314 310 305 301 301 301 302 303 297 297 301 300 300
252 128 131 140 147 150 152 150 148 150 157 156 158 158 160 161 161 160 161 158 159 157 158 178 267 303 309 314 318 316 313 309 304 302 304 303 297 298 300 301 306 305 301
111 132 135 143 145 147 150 149 148 153 157 157 157 158 156 159 158 157 155 152 152 150 154 235 307 310 313 320 319 317 316 315 311 306 302 301 301 299 297 302 301 303 303
140 146 149 146 151 151 149 147 151 153 156 158 154 154 155 155 154 153 150 147 149 150 150 301 312 318 317 322 321 321 321 318 311 306 303 301 300 302 303 304 303 301 300
144 146 150 149 151 147 145 149 151 153 152 150 151 153 153 152 150 149 147 146 147 141 304 314 320 320 319 324 323 322 321 317 311 306 304 304 306 304 307 306 307 307 310
137 142 148 143 145 147 148 148 147 148 149 149 149 149 150 150 149 147 144 147 155 196 306 318 321 323 324 323 323 322 323 319 315 307 305 303 303 306 306 310 310 311 306
138 142 143 149 150 148 148 145 144 146 146 148 146 147 149 150 147 145 140 160 173 304 317 322 324 323 321 320 325 326 325 320 314 304 308 308 307 307 309 309 307 306 305
133 139 146 146 144 141 143 143 142 147 151 149 149 150 149 149 144 142 165 159 304 320 327 328 326 323 321 322 323 324 324 320 317 320 313 308 308 309 310 306 301 302 308
131 135 137 135 135 142 152 150 150 148 150 154 151 147 144 142 160 159 151 278 324 329 326 324 327 322 318 318 320 324 327 323 312 310 312 314 314 310 307 306 308 308 306
149 151 147 145 147 148 157 154 154 157 152 148 144 143 155 162 154 157 259 323 325 327 326 325 325 324 320 322 318 314 317 316 314 311 310 308 310 310 312 316 313 313 314
145 151 150 148 146 162 165 161 149 148 148 149 156 161 160 154 161 215 310 317 326 328 326 324 322 321 321 319 311 318 320 321 317 315 312 312 312 311 313 316 319 319 318
156 157 158 159 161 160 155 153 151 153 159 161 162 160 155 167 213 290 320 324 324 325 324 323 323 322 320 318 317 320 320 322 313 313 315 324 315 316 321 320 323 325 325
157 159 167 165 156 155 154 155 158 164 164 165 163 162 174 201 283 322 326 323 320 323 324 324 324 324 322 322 322 322 319 316 318 317 323 313 318 320 322 324 328 332 333
Wind_Speed_850mb
53 56 54 59 65 65 63 59 53 47 46 47 47 45 47 52 54 53 57 59 52 54 48 40 34 26 23 19 14 14 20 24 24 19 16 21 19 20 21 17 17 28 37
65 64 61 63 65 66 63 63 61 55 51 48 48 45 51 59 69 74 73 65 65 56 44 43 35 28 24 21 13 14 19 22 22 18 16 4 15 15 15 20 33 25 32
67 67 69 68 68 69 67 63 61 59 56 50 47 51 63 76 78 75 73 66 62 56 49 47 38 25 23 17 13 13 15 21 22 18 9 4 7 26 17 26 23 28 33
64 69 69 69 73 72 68 65 62 61 56 56 57 68 73 78 75 74 70 64 57 53 51 44 31 28 21 17 13 14 16 16 18 21 16 11 19 8 17 13 19 31 38
39 46 54 62 65 63 71 64 61 60 58 60 65 70 61 55 63 69 66 57 53 51 48 40 34 31 22 18 15 14 15 16 17 18 20 20 18 18 18 34 24 43 40
23 32 41 41 48 59 48 63 63 65 62 67 68 60 55 64 64 69 66 61 56 56 50 43 29 23 19 13 12 14 15 18 19 20 20 19 16 17 23 31 46 53 54
38 29 30 36 37 42 56 53 58 61 66 67 54 50 64 58 56 62 67 62 58 54 46 36 32 28 16 12 10 12 16 19 21 22 22 25 25 28 31 36 48 53 62
34 35 39 37 35 39 43 54 53 56 57 57 52 61 59 53 58 63 67 60 59 52 43 37 28 20 13 8 9 12 18 20 23 25 27 28 29 31 33 38 43 58 50
16 22 27 27 28 34 41 51 51 53 54 54 61 59 58 57 63 69 62 59 53 48 42 33 24 16 8 6 10 15 19 22 26 27 29 31 33 36 38 42 42 43 55
35 37 46 47 38 34 40 47 52 52 53 56 57 58 59 59 66 69 65 56 51 44 37 28 19 10 5 7 12 17 20 24 26 29 30 34 36 39 41 42 43 43 51
64 69 64 56 53 43 40 49 52 55 57 55 55 56 61 62 67 64 58 54 47 41 30 21 13 6 5 9 14 18 23 25 28 32 36 37 38 41 42 43 44 45 48
77 61 67 74 65 47 45 55 55 54 59 59 57 58 64 68 68 64 59 50 45 34 25 17 9 4 7 11 15 20 24 28 32 35 36 37 37 43 43 41 42 48 50
41 44 54 56 62 52 51 57 65 58 59 62 61 64 73 72 69 61 55 48 38 29 21 12 5 4 8 13 18 22 27 31 33 34 37 41 41 43 42 44 47 49 53
18 14 18 42 50 57 59 58 66 63 63 66 69 76 78 72 64 59 50 42 32 23 15 8 4 5 11 17 21 26 31 32 33 36 39 42 44 44 44 51 45 49 57
1 9 20 35 46 55 58 61 67 69 68 77 78 81 76 67 60 53 45 36 26 18 11 4 4 9 16 20 25 30 32 33 36 39 41 41 45 50 44 44 51 56 62
9 17 28 39 48 53 55 71 77 77 79 80 81 76 69 62 54 46 37 29 21 13 7 2 7 14 19 25 30 33 35 38 40 44 45 43 42 40 41 43 47 50 61
18 22 33 39 44 53 59 77 86 86 83 82 75 68 62 56 47 39 31 24 16 9 3 5 11 17 25 29 32 36 40 44 41 42 41 41 39 42 45 49 49 58 59
24 31 34 42 49 62 69 83 84 82 78 73 69 61 56 48 41 33 25 18 11 5 3 10 16 23 29 29 35 40 44 41 39 41 40 43 45 45 48 53 65 66 67
24 28 38 47 62 75 80 82 81 77 71 66 60 54 46 40 33 27 20 13 6 1 7 14 21 25 26 35 37 44 44 41 38 36 40 43 47 45 46 58 69 72 76
32 44 54 61 66 73 77 80 76 66 58 55 53 46 39 32 28 22 14 7 3 5 13 20 25 28 29 35 40 45 44 39 37 40 43 41 42 44 53 59 70 75 71
37 40 46 55 62 65 67 62 58 56 54 52 48 42 35 29 22 12 10 5 3 11 18 23 26 30 32 36 44 44 41 37 42 47 48 51 43 53 57 59 63 61 56
40 44 52 55 55 54 59 60 57 54 52 47 41 36 30 21 12 13 6 2 9 16 21 24 25 25 29 36 40 42 33 36 44 50 55 58 57 59 57 54 47 48 51
41 45 53 57 54 52 49 54 54 50 45 40 35 28 18 19 14 7 2 8 15 20 21 26 28 30 35 34 31 30 35 40 44 48 53 59 59 53 50 44 45 42 42
39 44 50 53 51 51 46 40 45 42 37 32 28 25 20 14 8 2 7 13 18 22 26 28 31 36 36 34 37 48 51 46 47 55 62 60 47 42 41 43 43 42 42
40 46 52 53 52 47 41 41 39 36 35 34 28 20 15 9 4 6 11 16 23 24 27 31 36 37 40 39 46 48 48 46 52 55 57 45 43 47 46 46 45 46 50
46 49 53 50 52 49 45 42 39 35 32 28 19 15 11 6 5 11 19 21 22 27 31 32 35 38 40 44 48 48 44 46 48 47 41 41 44 45 48 50 53 55 59
Wind_Direction_850mb
239 236 234 231 230 229 226 222 218 217 210 204 201 203 204 210 209 207 198 213 208 212 214 214 217 225 241 232 244 283 304 315 324 330 321 316 319 302 285 279 270 284 299
241 237 233 230 228 227 224 218 218 216 211 211 212 199 201 207 212 208 211 210 210 212 209 213 220 223 223 225 247 286 305 314 328 337 348 342 286 311 295 274 284 284 291
244 242 238 233 230 228 226 224 217 215 212 203 193 188 199 208 211 206 221 216 214 216 208 214 215 217 226 230 259 289 308 321 326 339 349 339 283 291 285 273 285 292 288
243 242 240 237 232 228 227 222 219 212 206 198 195 209 216 215 217 217 210 204 203 203 201 205 202 203 213 246 273 297 310 319 318 329 331 307 280 299 300 258 297 286 293
246 247 244 242 239 232 224 222 216 207 201 200 198 215 212 216 216 209 202 198 199 195 194 195 193 214 213 233 266 288 313 315 316 321 321 320 307 292 277 297 293 290 294
255 253 249 246 241 239 231 215 212 204 197 198 211 213 202 217 209 201 195 195 197 193 191 195 198 207 212 237 267 300 313 315 320 318 315 313 299 272 279 287 295 299 308
272 256 247 241 238 236 231 217 209 203 196 202 195 189 212 214 209 203 198 193 190 189 191 194 187 204 217 243 283 310 314 318 319 316 313 309 301 292 294 294 297 296 301
265 264 253 251 258 236 224 217 210 201 193 187 182 191 207 201 196 196 193 193 192 189 181 188 186 199 218 251 299 312 317 317 316 314 312 307 302 297 297 296 297 302 299
284 281 257 255 257 247 230 211 206 196 185 177 176 190 193 193 191 188 188 184 182 179 181 187 188 198 219 282 311 318 318 317 313 313 310 307 305 302 301 297 295 293 298
285 284 272 266 269 254 224 208 196 187 176 169 180 186 186 188 187 186 181 182 175 179 180 180 184 200 248 305 313 315 316 313 311 308 305 304 302 298 297 297 294 288 287
283 280 270 264 261 242 213 193 185 174 167 167 176 178 179 182 180 176 170 174 176 177 176 178 187 207 278 307 312 314 312 311 308 307 305 303 302 300 300 298 295 291 292
288 280 269 258 232 217 196 179 169 166 162 167 171 172 172 172 173 166 169 170 173 169 173 178 184 230 294 307 311 311 311 311 307 303 300 300 299 298 302 300 294 293 294
300 282 263 225 198 179 177 168 158 157 158 163 167 165 163 168 165 166 166 166 167 168 169 176 196 265 298 305 309 311 311 307 304 302 300 300 301 303 300 298 298 300 299
295 325 83 143 156 161 162 159 151 155 158 164 159 159 162 164 164 163 163 163 164 164 163 173 218 287 301 308 312 315 314 310 305 301 301 301 302 303 297 297 301 300 300
252 128 131 140 147 150 152 150 148 150 157 156 158 158 160 161 161 160 161 158 159 157 158 178 267 303 309 314 318 316 313 309 304 302 304 303 297 298 300 301 306 305 301
111 132 135 143 145 147 150 149 148 153 157 157 157 158 156 159 158 157 155 152 152 150 154 235 307 310 313 320 319 317 316 315 311 306 302 301 301 299 297 302 301 303 303
140 146 149 146 151 151 149 147 151 153 156 158 154 154 155 155 154 153 150 147 149 150 150 301 312 318 317 322 321 321 321 318 311 306 303 301 300 302 303 304 303 301 300
144 146 150 149 151 147 145 149 151 153 152 150 151 153 153 152 150 149 147 146 147 141 304 314 320 320 319 324 323 322 321 317 311 306 304 304 306 304 307 306 307 307 310
137 142 148 143 145 147 148 148 147 148 149 149 149 149 150 150 149 147 144 147 155 196 306 318 321 323 324 323 323 322 323 319 315 307 305 303 303 306 306 310 310 311 306
138 142 143 149 150 148 148 145 144 146 146 148 146 147 149 150 147 145 140 160 173 304 317 322 324 323 321 320 325 326 325 320 314 304 308 308 307 307 309 309 307 306 305
133 139 146 146 144 141 143 143 142 147 151 149 149 150 149 149 144 142 165 159 304 320 327 328 326 323 321 322 323 324 324 320 317 320 313 308 308 309 310 306 301 302 308
131 135 137 135 135 142 152 150 150 148 150 154 151 147 144 142 160 159 151 278 324 329 326 324 327 322 318 318 320 324 327 323 312 310 312 314 314 310 307 306 308 308 306
149 151 147 145 147 148 157 154 154 157 152 148 144 143 155 162 154 157 259 323 325 327 326 325 325 324 320 322 318 314 317 316 314 311 310 308 310 310 312 316 313 313 314
145 151 150 148 146 162 165 161 149 148 148 149 156 161 160 154 161 215 310 317 326 328 326 324 322 321 321 319 311 318 320 321 317 315 312 312 312 311 313 316 319 319 318
156 157 158 159 161 160 155 153 151 153 159 161 162 160 155 167 213 290 320 324 324 325 324 323 323 322 320 318 317 320 320 322 313 313 315 324 315 316 321 320 323 325 325
157 159 167 165 156 155 154 155 158 164 164 165 163 162 174 201 283 322 326 323 320 323 324 324 324 324 322 322 322 322 319 316 318 317 323 313 318 320 322 324 328 332 333